Tracking 19242 objects as of 15-Aug-2018
HD Live streaming from Space Station
objects crossing your sky now

MICROMAS 2A

Track MICROMAS 2A now!
10-day predictions
MICROMAS 2A is classified as:


NORAD ID: 43131
Int'l Code: 2018-004W
Perigee: 498.3 km
Apogee: 509.6 km
Inclination: 97.5 °
Period: 94.6 minutes
Semi major axis: 6874 km
RCS: Unknown
Launch date: January 12, 2018
Source: United States (US)
Launch site: SRIHARIKOTA (SRI)

MICROMAS 2A is a 3U cubesat from MIT Lincoln Lab, designed for microwave radiometry of tropical weather.
aabbcc
Your satellite tracking list
Your tracking list is empty




NASA's NSSDC Master Catalog

Two Line Element Set (TLE):
1 43131U 18004W   18226.84340902  .00001211  00000-0  54585-4 0  9990
2 43131  97.5298 289.7037 0008210 248.9603 111.0756 15.22981347 32641
Source of the keplerian elements: AFSPC